Location: Songkhla
(7.2000°N, 100.6000°E)
Time: 20:57:06
(UTC+07:00)

SL-8 Rocket - Pass Details

Date: 16 April 2026
Orbit: 957 x 989 km, 82.9° (Epoch: 20 May)

Event Time Altitude Azimuth Distance (km) Brightness Sun altitude
Rises 19:34:11 0° 170° (S) 3,640 6.8 -17.4°
Reaches altitude 10° 19:36:47 10° 164° (SSE) 2,698 6.0 -18.0°
Maximum altitude 19:42:40 47° 92° (E) 1,265 4.1 -19.4°
Drops below altitude 10° 19:48:34 10° 20° (NNE) 2,715 6.3 -20.8°
Sets 19:51:10 0° 15° (NNE) 3,667 7.0 -21.5°
